This demonstration page uses our WeatherBlox Daily Observations layout. Learn more.

Left ArrowRight Arrow

Hourly Observations for September 13, 2017

Temp ( °F °C ) Dew Point ( °F °C ) Humidity (%) Winds ( mph kmh ) Pressure ( in mb ) Visibility ( mi km ) Precip ( " mm )
12:54 am 00:54 Clear 61 16.1 58 14.4 90 90 N 3 6 29.85 1011 7 11.26538 0 0
1:54 am 01:54 Clear 60 15.6 57 13.9 90 90 Calm 29.83 1010 8 12.87472 0 0
2:54 am 02:54 Clear 60 15.6 57 13.9 90 90 Calm 29.81 1010 8 12.87472 0 0
3:54 am 03:54 Clear 57 13.9 54 12.2 90 90 NNW 3 6 29.82 1010 8 12.87472 0 0
4:54 am 04:54 Clear 60 15.6 57 13.9 90 90 Calm 29.79 1009 8 12.87472 0 0
5:54 am 05:54 Clear 55 12.8 53 11.7 93 93 Calm 29.81 1009 8 12.87472 0 0
6:54 am 06:54 Clear 57 13.9 55 12.8 93 93 SSE 3 6 29.81 1009 8 12.87472 0 0
7:54 am 07:54 Sunny 61 16.1 56 13.3 84 84 Calm 29.83 1010 8 12.87472 0 0
8:54 am 08:54 Sunny 65 18.3 57 13.9 76 76 Calm 29.82 1010 8 12.87472 0 0
9:54 am 09:54 Sunny 71 21.7 59 15 66 66 Calm 29.81 1009 9 14.48406 0 0
10:54 am 10:54 Sunny 80 26.7 55 12.8 42 42 SSW 12 19 29.79 1009 10 16.0934 0 0
11:54 am 11:54 Sunny 83 28.3 54 12.2 37 37 SW 10 17 29.78 1008 10 16.0934 0 0
12:54 pm 12:54 Sunny 85 29.4 55 12.8 36 36 SSW 8 13 29.76 1008 10 16.0934 0 0
1:54 pm 13:54 Sunny 87 30.6 56 13.3 35 35 SSW 8 13 29.73 1007 10 16.0934 0 0
2:54 pm 14:54 Sunny 90 32.2 54 12.2 29 29 WSW 10 17 29.71 1006 10 16.0934 0 0
3:54 pm 15:54 Sunny 89 31.7 55 12.8 31 31 SW 9 15 29.7 1006 10 16.0934 0 0
4:54 pm 16:54 Sunny 88 31.1 55 12.8 33 33 SSW 8 13 29.69 1006 10 16.0934 0 0
5:54 pm 17:54 Partly Cloudy 87 30.6 57 13.9 36 36 S 7 11 29.68 1005 10 16.0934 0 0
6:54 pm 18:54 Mostly Cloudy 85 29.4 58 14.4 40 40 SSE 7 11 29.68 1005 10 16.0934 0 0
7:54 pm 19:54 Clear 80 26.7 57 13.9 45 45 SE 5 7 29.68 1005 10 16.0934 0 0
8:54 pm 20:54 Clear 74 23.3 58 14.4 57 57 SSE 6 9 29.7 1006 10 16.0934 0 0
9:54 pm 21:54 Mostly Clear 71 21.7 58 14.4 63 63 S 8 13 29.71 1006 10 16.0934 0 0
10:54 pm 22:54 Mostly Clear 72 22.2 56 13.3 57 57 SSE 6 9 29.7 1006 10 16.0934 0 0
11:54 pm 23:54 Partly Cloudy 69 20.6 57 13.9 66 66 S 9 15 29.7 1006 10 16.0934 0 0

Powered by AerisWeather